#timestamp,LO_Frequency,Hit,StdDev 
1627686015.1,286047010.1,N
1627686035.9,286047010.5,N
1627686055.7,286047011.6,N
1627686075.5,286047011.2,N
1627686095.4,286047015.4,N
1627686115.2,286047014.9,N
1627686135.1,286047011.4,N
1627686136.0,286047011.4,N
1627686155.8,286047011.1,N
1627686175.6,286047011.1,N
1627686195.5,286047009.9,N
1627686215.3,286047011.1,N
1627686235.1,286047015.5,N
1627686255.9,286047012.7,N
1627686275.7,286047013.8,N
1627686295.6,286047013.4,N
1627686315.4,286047012.7,N
1627686335.2,286047017.0,Y
1627686355.1,286047008.8,P
1627686356.0,286047008.8,P
1627686375.8,286047006.7,P
1627686395.6,286047004.6,Y
1627686415.5,286046996.9,P
1627686435.3,286046996.5,N
1627686455.2,286046998.1,N
1627686475.9,286047000.9,N
1627686495.7,286047001.1,N
1627686515.6,286046999.4,N
1627686535.4,286047000.8,N
1627686555.2,286046998.4,N
1627686575.1,286046999.4,N
1627686576.0,286046999.4,N
1627686595.8,286047001.2,N
1627686615.7,286046998.4,N
1627686635.5,286046995.4,N
1627686655.3,286046997.5,N
1627686675.2,286046997.2,N
1627686725.0,286046995.9,E
1627686735.9,286046999.5,N
1627686755.7,286047000.3,P
1627686775.5,286046999.5,N
1627686795.4,286046998.8,Y
1627686815.2,286046998.5,P
1627686835.1,286047002.8,P
1627686836.0,286047002.8,N
1627686855.8,286047001.4,N
1627686875.6,286047001.5,N
1627686895.5,286047000.4,N
1627686915.3,286046999.1,N
1627686935.2,286046996.9,N
1627686955.9,286046998.4,N
1627686975.7,286047000.7,N
1627686995.6,286047002.1,N
1627687015.4,286047002.1,N
1627687035.3,286047003.9,N
1627687055.1,286047002.3,N
1627687075.9,286047001.2,N
1627687095.7,286047002.3,N
1627687115.5,286046999.8,N
1627687135.4,286047000.2,N
1627687155.2,286047002.4,N
1627687175.0,286047000.0,N
1627687176.0,286047000.0,N
1627687195.8,286047004.2,N
1627687215.6,286047003.8,N
1627687235.5,286047005.8,Y
1627687255.3,286047004.8,P
1627687275.1,286047007.3,P
1627687295.9,286047013.6,P
1627687315.7,286047015.2,Y
1627687335.6,286047007.4,P
1627687355.4,286047009.8,P
1627687375.2,286047010.0,P
1627687395.1,286047012.2,Y
1627687396.0,286047012.2,P
1627687415.8,286047005.5,N
1627687435.6,286047005.7,N
1627687455.5,286047003.5,N
1627687475.3,286047004.5,N
1627687495.2,286047008.0,N
1627687515.9,286047007.2,N
1627687535.7,286047006.2,N
1627687555.6,286047004.6,N
1627687575.4,286047003.0,N
1627687595.2,286047003.3,N
1627687615.1,286047003.5,N
1627687616.0,286047003.5,N
1627687635.8,286047004.9,N
1627687655.7,286047008.0,Y
1627687675.5,286047003.2,P
1627687695.3,286047001.8,N
1627687715.2,286047004.4,N
1627687735.0,286047003.9,N
1627687735.9,286047003.9,Y
1627687755.8,286047000.6,P
1627687775.6,286046998.4,N
1627687795.4,286047000.8,N
1627687815.3,286046999.8,N
1627687835.1,286047001.5,N
1627687855.8,286047005.9,Y
1627687875.7,286047002.2,P
1627687895.5,286046999.7,N
1627687915.4,286046999.2,N
1627687935.2,286047001.2,N
1627687955.0,286046997.4,N
1627687955.9,286046997.4,N
1627687975.8,286046995.5,N
1627687995.6,286046994.4,N
1627688015.4,286046996.4,N
1627688035.3,286046994.1,N
1627688055.1,286046997.2,N
1627688075.9,286046997.5,N
1627688095.7,286046997.0,N
1627688115.5,286046999.0,N
1627688135.4,286046999.7,N
1627688155.2,286047000.6,N
1627688175.0,286046999.8,N
1627688175.9,286046999.8,N
1627688195.8,286047002.7,N
1627688215.6,286047001.4,N
1627688235.5,286047002.7,N
1627688255.3,286047002.2,N
1627688275.1,286047003.6,N
1627688295.9,286047004.5,N
1627688315.7,286047006.6,N
1627688335.5,286047004.5,N
1627688355.4,286047006.6,N
1627688375.2,286047006.8,N
1627688395.0,286047007.3,N
1627688396.0,286047007.3,N
1627688415.8,286047007.1,N
1627688435.6,286047006.7,N
1627688455.5,286047006.3,N
1627688475.3,286047008.1,N
1627688495.1,286047010.5,N
1627688515.9,286047013.0,N
1627688535.7,286047012.5,N
1627688555.6,286047013.0,N
1627688575.4,286047018.0,Y
1627688595.2,286047018.3,P
1627688615.1,286047018.5,N
1627688616.0,286047018.5,N
1627688635.8,286047015.9,N
1627688655.6,286047019.8,Y
1627688675.5,286047003.3,P
1627688695.3,286047004.2,N
1627688715.2,286046999.8,N
1627688735.9,286047004.2,N
1627688755.7,286047003.3,N
1627688775.6,286047005.2,N
1627688795.4,286047006.7,N
1627688815.2,286047006.1,N
1627688835.1,286047007.8,N
1627688836.0,286047007.8,N
1627688855.8,286047010.0,N
1627688875.7,286047011.0,N
1627688895.5,286047015.2,Y
1627688915.3,286047012.4,P
1627688935.2,286047015.1,P
1627688955.0,286047016.0,P
1627688955.9,286047016.0,Y
1627688975.8,286047006.6,P
1627688995.6,286047008.6,N
1627689015.4,286047009.8,P
1627689035.3,286047013.3,Y
1627689055.1,286047006.8,P
1627689075.8,286047006.1,P
1627689095.7,286047009.5,P
1627689115.5,286047014.0,Y
1627689135.4,286047004.6,P
1627689155.2,286047007.9,P
1627689175.0,286047009.5,P
1627689176.0,286047009.5,Y
1627689195.8,286047003.3,P
1627689215.6,286047004.7,N
1627689235.5,286047007.2,P
1627689255.3,286047006.3,Y
1627689275.1,286047003.5,P
1627689295.9,286047002.2,N
1627689315.7,286047000.8,N
1627689335.6,286046998.1,N
1627689355.4,286046998.5,N
1627689375.2,286046998.3,N
1627689395.1,286047000.2,N
1627689396.0,286047000.2,N
1627689415.8,286047002.6,N
1627689435.6,286047002.0,N
1627689455.5,286047006.5,N
1627689475.3,286047008.1,Y
1627689495.2,286047008.4,P
1627689515.9,286047005.0,N
1627689535.7,286047004.5,N
1627689555.6,286047007.0,N
1627689575.4,286047006.7,N
1627689595.2,286047006.1,N
